THORAD AGENA D DEB, 42546

Orbit data source: Space-Track

THORAD AGENA D DEB, 42546 is space debris in SSO originally from a launch on Wed, 08 Apr 1970 UTC launched from the Air Force Western Test Range (AFWTR). Debris objects in space refer to the collection of defunct objects orbiting the Earth. Examples of debris include non-operational satellites, rocket bodies, and fragments generated from explosions, collisions, or faulty payload assembly.

Loading next visibility...
Identifier
42546, 1970-025TC
Orbit
SSO
Country
Flag of USUS
Related business
Manufacturer
Unknown
Mission
Spacecraft
Bus & Motor
Unknown
Mass
Unknown
Launch date (UTC)
1970-04-08 (56 years ago)
Launch vehicle
Unknown
Launch site
Air Force Western Test Range (AFWTR)
Object type
Payload
Rocket body
Debris
Shape & HBR
Unknown shape, 0.1 m
Radar Cross Section
Small (<0.1 m²)

Expand to show TLE details & history
Last TLE update: 1 day ago

TLE from 1 day ago
0 THORAD AGENA D DEB
1 42546U 70025TC  26126.34190041  .00000712  00000-0  93309-3 0  9991
2 42546 100.1122 341.6959 0055496  43.5502 317.0001 13.64799843618893
Epoch: 2026-05-06T08:12Z
TLE epoch observation values (Epoch: 2026-05-06T08:12:20.195Z)
Latitude
-0.00003°
Longitude
-5.59201°
Altitude
991.172 km
Speed
7.371 km/s
True Right ascension
22h 46m 47s
True Declination
0° 00' 00"
Sunlit
Object was in daylight at epoch
Visualization orbit readout
Latitude
Unknown
Longitude
Unknown
Altitude
Unknown
Speed
Unknown
Apparent Right ascension
Unknown
Apparent Declination
Unknown
Sunlit
N/A
Visualization observer readout
Local Sidereal Time
17:34:37
Azimuth
Unknown
Elevation
Unknown
Doppler factor
Unknown
Orbital elements
Apogee altitude
1,056.635 km
Perigee altitude
974.57 km
Semi-major axis
7,393.74 km
Eccentricity
0.00555
Inclination
100.1122°
RAAN
341.6959°
Arg. of periapsis
43.5502°
True anomaly
316.56419°
Mean anomaly
317.0001°
Eccentric anomaly
316.78236°
Mean motion
3.41387 °/min
Orbital period
105.45 mins
BSTAR
0.00093309
Loading maneuver chart data...
Computing Atmospheric mass density...

Documentation

Showing up to 5 results
|